| time (UTC) | temp F | wind direction | speed MPH | gust MPH | rain 1hr in | rain 24hr in | rain mn in | humidity % | barometer mb |
| 20260906204553 | 83 | 0 | 0.0 | 8.0 | 0.00 | 0.00 | 0.00 | 54 | 1018.2 |
| 20260906204030 | 83 | 0 | 1.0 | 8.0 | 0.00 | 0.00 | 0.00 | 55 | 1018.2 |
| 20260906203527 | 83 | 286 | 0.0 | 6.0 | 0.00 | 0.00 | 0.00 | 54 | 1018.3 |
| 20260906203046 | 83 | 286 | 1.0 | 7.0 | 0.00 | 0.00 | 0.00 | 56 | 1018.3 |
| 20260906202526 | 83 | 0 | 0.0 | 7.0 | 0.00 | 0.00 | 0.00 | 56 | 1018.2 |
| 20260906202026 | 83 | 0 | 0.0 | 7.0 | 0.00 | 0.00 | 0.00 | 56 | 1018.2 |
| 20260906201603 | 83 | 0 | 0.0 | 7.0 | 0.00 | 0.00 | 0.00 | 56 | 1018.2 |
| 20260906201026 | 83 | 0 | 0.0 | 7.0 | 0.00 | 0.00 | 0.00 | 55 | 1018.2 |
| 20260906200526 | 83 | 0 | 0.0 | 7.0 | 0.00 | 0.00 | 0.00 | 56 | 1018.2 |
| 20260906200052 | 83 | 0 | 0.0 | 4.0 | 0.00 | 0.00 | 0.00 | 57 | 1018.2 |
| 20260906195523 | 83 | 0 | 0.0 | 4.0 | 0.00 | 0.00 | 0.00 | 58 | 1018.3 |
| 20260906195027 | 83 | 0 | 0.0 | 6.0 | 0.00 | 0.00 | 0.00 | 56 | 1018.4 |
| 20260906194549 | 83 | 0 | 0.0 | 7.0 | 0.00 | 0.00 | 0.00 | 57 | 1018.4 |
| 20260906194024 | 83 | 286 | 0.0 | 7.0 | 0.00 | 0.00 | 0.00 | 55 | 1018.4 |
| 20260906193527 | 83 | 0 | 0.0 | 6.0 | 0.00 | 0.00 | 0.00 | 55 | 1018.6 |
| 20260906193046 | 82 | 0 | 0.0 | 1.0 | 0.00 | 0.00 | 0.00 | 58 | 1018.7 |
| 20260906192526 | 83 | 0 | 0.0 | 3.0 | 0.00 | 0.00 | 0.00 | 58 | 1018.7 |
| 20260906192027 | 83 | 0 | 0.0 | 3.0 | 0.00 | 0.00 | 0.00 | 56 | 1018.8 |
| 20260906191556 | 83 | 0 | 0.0 | 3.0 | 0.00 | 0.00 | 0.00 | 58 | 1018.8 |
| 20260906191025 | 83 | 0 | 0.0 | 3.0 | 0.00 | 0.00 | 0.00 | 61 | 1018.7 |
| 20260906190524 | 82 | 0 | 0.0 | 6.0 | 0.00 | 0.00 | 0.00 | 58 | 1018.7 |
| 20260906190052 | 83 | 0 | 0.0 | 6.0 | 0.00 | 0.00 | 0.00 | 59 | 1018.8 |
| 20260906185529 | 81 | 0 | 0.0 | 4.0 | 0.00 | 0.00 | 0.00 | 60 | 1018.7 |
| 20260906185028 | 81 | 0 | 0.0 | 4.0 | 0.00 | 0.00 | 0.00 | 64 | 1018.7 |
| 20260906184548 | 80 | 0 | 0.0 | 4.0 | 0.00 | 0.00 | 0.00 | 62 | 1018.6 |
| 20260906184032 | 81 | 0 | 0.0 | 6.0 | 0.00 | 0.00 | 0.00 | 59 | 1018.7 |
| 20260906183526 | 81 | 0 | 0.0 | 6.0 | 0.00 | 0.00 | 0.00 | 64 | 1018.8 |
| 20260906183108 | 81 | 286 | 0.0 | 6.0 | 0.00 | 0.00 | 0.00 | 63 | 1018.9 |
| 20260906182526 | 80 | 0 | 0.0 | 4.0 | 0.00 | 0.00 | 0.00 | 62 | 1019.0 |
| 20260906182029 | 81 | 0 | 0.0 | 6.0 | 0.00 | 0.00 | 0.00 | 61 | 1019.0 |
| 20260906181553 | 81 | 0 | 0.0 | 6.0 | 0.00 | 0.00 | 0.00 | 61 | 1019.0 |
| 20260906181026 | 82 | 0 | 0.0 | 6.0 | 0.00 | 0.00 | 0.00 | 59 | 1019.0 |
| 20260906180527 | 83 | 0 | 0.0 | 6.0 | 0.00 | 0.00 | 0.00 | 60 | 1019.0 |
| 20260906180111 | 82 | 286 | 0.0 | 4.0 | 0.00 | 0.00 | 0.00 | 63 | 1019.1 |
| 20260906175524 | 82 | 0 | 0.0 | 4.0 | 0.00 | 0.00 | 0.00 | 63 | 1019.1 |
| 20260906175026 | 81 | 0 | 0.0 | 4.0 | 0.00 | 0.00 | 0.00 | 65 | 1019.1 |
| 20260906174550 | 80 | 0 | 0.0 | 4.0 | 0.00 | 0.00 | 0.00 | 63 | 1019.2 |
| 20260906174024 | 81 | 0 | 0.0 | 4.0 | 0.00 | 0.00 | 0.00 | 63 | 1019.3 |
| 20260906173528 | 81 | 0 | 0.0 | 3.0 | 0.00 | 0.00 | 0.00 | 62 | 1019.3 |
| 20260906173048 | 82 | 0 | 0.0 | 3.0 | 0.00 | 0.00 | 0.00 | 60 | 1019.4 |
| 20260906172522 | 82 | 0 | 0.0 | 0.0 | 0.00 | 0.00 | 0.00 | 60 | 1019.4 |
| 20260906172031 | 81 | 0 | 0.0 | 4.0 | 0.00 | 0.00 | 0.00 | 66 | 1019.5 |
| 20260906171548 | 81 | 0 | 0.0 | 6.0 | 0.00 | 0.00 | 0.00 | 64 | 1019.6 |
| 20260906171025 | 80 | 0 | 0.0 | 6.0 | 0.00 | 0.00 | 0.00 | 63 | 1019.7 |
| 20260906170526 | 79 | 0 | 0.0 | 3.0 | 0.00 | 0.00 | 0.00 | 65 | 1019.8 |
| 20260906170046 | 80 | 0 | 0.0 | 3.0 | 0.00 | 0.00 | 0.00 | 63 | 1019.9 |
| 20260906165529 | 80 | 0 | 0.0 | 3.0 | 0.00 | 0.00 | 0.00 | 64 | 1020.0 |
| 20260906165026 | 79 | 0 | 0.0 | 0.0 | 0.00 | 0.00 | 0.00 | 67 | 1020.0 |
| 20260906164543 | 79 | 0 | 0.0 | 2.0 | 0.00 | 0.00 | 0.00 | 66 | 1020.1 |
| 20260906164023 | 80 | 0 | 0.0 | 2.0 | 0.00 | 0.00 | 0.00 | 65 | 1020.1 |
| 20260906163531 | 81 | 0 | 0.0 | 0.0 | 0.00 | 0.00 | 0.00 | 63 | 1020.1 |
| 20260906163048 | 82 | 0 | 0.0 | 8.0 | 0.00 | 0.00 | 0.00 | 63 | 1020.2 |
| 20260906162529 | 81 | 0 | 0.0 | 8.0 | 0.00 | 0.00 | 0.00 | 64 | 1020.0 |
| 20260906162025 | 81 | 286 | 0.0 | 8.0 | 0.00 | 0.00 | 0.00 | 65 | 1019.9 |
| 20260906161552 | 81 | 0 | 0.0 | 6.0 | 0.00 | 0.00 | 0.00 | 65 | 1020.0 |
| 20260906161026 | 81 | 0 | 0.0 | 3.0 | 0.00 | 0.00 | 0.00 | 64 | 1019.7 |
| 20260906160527 | 81 | 0 | 0.0 | 4.0 | 0.00 | 0.00 | 0.00 | 66 | 1019.7 |
| 20260906160049 | 80 | 0 | 0.0 | 4.0 | 0.00 | 0.00 | 0.00 | 67 | 1019.6 |
| 20260906155531 | 80 | 0 | 0.0 | 1.0 | 0.00 | 0.00 | 0.00 | 65 | 1019.5 |
| 20260906155027 | 80 | 0 | 0.0 | 1.0 | 0.00 | 0.00 | 0.00 | 65 | 1019.7 |
| 20260906154546 | 80 | 0 | 0.0 | 6.0 | 0.00 | 0.00 | 0.00 | 65 | 1019.5 |
| 20260906154025 | 79 | 0 | 0.0 | 6.0 | 0.00 | 0.00 | 0.00 | 65 | 1019.5 |
| 20260906153525 | 79 | 0 | 0.0 | 4.0 | 0.00 | 0.00 | 0.00 | 67 | 1019.6 |
| 20260906153047 | 78 | 0 | 0.0 | 4.0 | 0.00 | 0.00 | 0.00 | 69 | 1019.4 |
| 20260906152525 | 78 | 0 | 0.0 | 3.0 | 0.00 | 0.00 | 0.00 | 70 | 1019.5 |
| 20260906152029 | 78 | 0 | 0.0 | 3.0 | 0.00 | 0.00 | 0.00 | 70 | 1019.4 |
| 20260906151545 | 77 | 0 | 0.0 | 0.0 | 0.00 | 0.00 | 0.00 | 69 | 1019.5 |
| 20260906151026 | 77 | 0 | 0.0 | 0.0 | 0.00 | 0.00 | 0.00 | 71 | 1019.2 |
| 20260906150526 | 77 | 0 | 0.0 | 0.0 | 0.00 | 0.00 | 0.00 | 71 | 1019.1 |
| 20260906150055 | 76 | 0 | 0.0 | 0.0 | 0.00 | 0.00 | 0.00 | 73 | 1019.2 |
| 20260906145527 | 76 | 0 | 0.0 | 3.0 | 0.00 | 0.00 | 0.00 | 74 | 1019.2 |
| 20260906145027 | 75 | 0 | 0.0 | 3.0 | 0.00 | 0.00 | 0.00 | 77 | 1019.1 |
| 20260906144554 | 75 | 0 | 0.0 | 0.0 | 0.00 | 0.00 | 0.00 | 77 | 1019.1 |
| 20260906144027 | 74 | 0 | 0.0 | 0.0 | 0.00 | 0.00 | 0.00 | 78 | 1019.1 |
| 20260906143523 | 74 | 0 | 0.0 | 0.0 | 0.00 | 0.00 | 0.00 | 79 | 1019.2 |
| 20260906143045 | 73 | 0 | 0.0 | 0.0 | 0.00 | 0.00 | 0.00 | 78 | 1019.2 |
| 20260906142525 | 73 | 0 | 0.0 | 0.0 | 0.00 | 0.00 | 0.00 | 80 | 1019.2 |
| 20260906142026 | 73 | 0 | 0.0 | 0.0 | 0.00 | 0.00 | 0.00 | 81 | 1019.2 |
| 20260906141547 | 73 | 0 | 0.0 | 3.0 | 0.00 | 0.00 | 0.00 | 82 | 1019.1 |
| 20260906141026 | 72 | 0 | 0.0 | 3.0 | 0.00 | 0.00 | 0.00 | 82 | 1019.2 |
| 20260906140529 | 72 | 0 | 0.0 | 0.0 | 0.00 | 0.00 | 0.00 | 82 | 1019.3 |
| 20260906140044 | 72 | 0 | 0.0 | 0.0 | 0.00 | 0.00 | 0.00 | 82 | 1019.2 |
| 20260906135529 | 72 | 0 | 0.0 | 0.0 | 0.00 | 0.00 | 0.00 | 82 | 1019.3 |
| 20260906135027 | 72 | 0 | 0.0 | 0.0 | 0.00 | 0.00 | 0.00 | 82 | 1019.3 |
| 20260906134551 | 72 | 0 | 0.0 | 0.0 | 0.00 | 0.00 | 0.00 | 82 | 1019.3 |
| 20260906134026 | 72 | 0 | 0.0 | 0.0 | 0.00 | 0.00 | 0.00 | 83 | 1019.4 |
| 20260906133527 | 72 | 0 | 0.0 | 0.0 | 0.00 | 0.00 | 0.00 | 83 | 1019.4 |
| 20260906133048 | 72 | 0 | 0.0 | 0.0 | 0.00 | 0.00 | 0.00 | 84 | 1019.4 |
| 20260906132528 | 71 | 0 | 0.0 | 0.0 | 0.00 | 0.00 | 0.00 | 86 | 1019.5 |
| 20260906132026 | 71 | 0 | 0.0 | 0.0 | 0.00 | 0.00 | 0.00 | 87 | 1019.4 |
| 20260906131546 | 70 | 0 | 0.0 | 0.0 | 0.00 | 0.00 | 0.00 | 88 | 1019.5 |
| 20260906131050 | 70 | 0 | 0.0 | 0.0 | 0.00 | 0.00 | 0.00 | 89 | 1019.3 |
| 20260906130526 | 70 | 0 | 0.0 | 0.0 | 0.00 | 0.00 | 0.00 | 90 | 1019.3 |
| 20260906130054 | 69 | 0 | 0.0 | 0.0 | 0.00 | 0.00 | 0.00 | 91 | 1019.3 |
| 20260906125525 | 69 | 0 | 0.0 | 0.0 | 0.00 | 0.00 | 0.00 | 92 | 1019.2 |
| 20260906125026 | 69 | 0 | 0.0 | 0.0 | 0.00 | 0.00 | 0.00 | 92 | 1019.1 |
| 20260906124550 | 69 | 0 | 0.0 | 0.0 | 0.00 | 0.00 | 0.00 | 92 | 1019.0 |
| 20260906124027 | 69 | 0 | 0.0 | 0.0 | 0.00 | 0.00 | 0.00 | 92 | 1018.9 |
| 20260906123527 | 69 | 0 | 0.0 | 0.0 | 0.00 | 0.00 | 0.00 | 92 | 1018.8 |
| 20260906123048 | 69 | 0 | 0.0 | 0.0 | 0.00 | 0.00 | 0.00 | 92 | 1018.7 |
| 20260906122523 | 69 | 0 | 0.0 | 0.0 | 0.00 | 0.00 | 0.00 | 92 | 1018.8 |
| 20260906122026 | 69 | 0 | 0.0 | 0.0 | 0.00 | 0.00 | 0.00 | 92 | 1018.7 |
| 20260906121554 | 69 | 0 | 0.0 | 0.0 | 0.00 | 0.00 | 0.00 | 92 | 1018.6 |
| 20260906121026 | 69 | 0 | 0.0 | 0.0 | 0.00 | 0.00 | 0.00 | 92 | 1018.6 |
| 20260906120527 | 69 | 0 | 0.0 | 0.0 | 0.00 | 0.00 | 0.00 | 92 | 1018.3 |
| 20260906120040 | 69 | 0 | 0.0 | 0.0 | 0.00 | 0.00 | 0.00 | 91 | 1018.1 |
| 20260906115526 | 69 | 0 | 0.0 | 0.0 | 0.00 | 0.00 | 0.00 | 91 | 1018.0 |
| 20260906115027 | 69 | 0 | 0.0 | 0.0 | 0.00 | 0.00 | 0.00 | 91 | 1018.0 |
| 20260906114557 | 70 | 0 | 0.0 | 0.0 | 0.00 | 0.00 | 0.00 | 91 | 1018.0 |
| 20260906114025 | 70 | 0 | 0.0 | 0.0 | 0.00 | 0.00 | 0.00 | 91 | 1017.9 |
| 20260906113524 | 70 | 0 | 0.0 | 0.0 | 0.00 | 0.00 | 0.00 | 91 | 1017.8 |
| 20260906113054 | 70 | 0 | 0.0 | 0.0 | 0.00 | 0.00 | 0.00 | 91 | 1017.9 |
| 20260906112525 | 70 | 0 | 0.0 | 0.0 | 0.00 | 0.00 | 0.00 | 91 | 1017.8 |
| 20260906112026 | 70 | 0 | 0.0 | 0.0 | 0.00 | 0.00 | 0.00 | 91 | 1017.7 |
| 20260906111545 | 71 | 0 | 0.0 | 1.0 | 0.00 | 0.00 | 0.00 | 91 | 1017.7 |
| 20260906111025 | 71 | 0 | 0.0 | 2.0 | 0.00 | 0.00 | 0.00 | 91 | 1017.5 |
| 20260906110525 | 71 | 0 | 0.0 | 2.0 | 0.00 | 0.00 | 0.00 | 91 | 1017.5 |
| 20260906110049 | 71 | 0 | 0.0 | 8.0 | 0.00 | 0.00 | 0.00 | 91 | 1017.3 |
| 20260906105526 | 71 | 0 | 0.0 | 8.0 | 0.00 | 0.00 | 0.00 | 92 | 1017.3 |
| 20260906105026 | 71 | 0 | 0.0 | 0.0 | 0.00 | 0.00 | 0.00 | 92 | 1017.4 |
| 20260906104548 | 71 | 0 | 0.0 | 0.0 | 0.00 | 0.00 | 0.00 | 92 | 1017.2 |
| 20260906104029 | 71 | 0 | 0.0 | 0.0 | 0.00 | 0.00 | 0.00 | 92 | 1017.1 |
| 20260906103527 | 71 | 0 | 0.0 | 0.0 | 0.00 | 0.00 | 0.00 | 92 | 1017.0 |
| 20260906103048 | 71 | 0 | 0.0 | 0.0 | 0.00 | 0.00 | 0.00 | 92 | 1017.2 |
| 20260906102526 | 71 | 0 | 0.0 | 0.0 | 0.00 | 0.00 | 0.00 | 92 | 1017.2 |
| 20260906102028 | 71 | 0 | 0.0 | 0.0 | 0.00 | 0.00 | 0.00 | 92 | 1017.0 |
| 20260906101546 | 71 | 0 | 0.0 | 3.0 | 0.00 | 0.00 | 0.00 | 92 | 1017.0 |
| 20260906101025 | 71 | 0 | 0.0 | 3.0 | 0.00 | 0.00 | 0.00 | 93 | 1017.0 |
| 20260906100526 | 71 | 0 | 0.0 | 0.0 | 0.00 | 0.00 | 0.00 | 93 | 1016.9 |
| 20260906100050 | 71 | 0 | 0.0 | 0.0 | 0.00 | 0.00 | 0.00 | 93 | 1016.9 |
| 20260906095525 | 71 | 0 | 0.0 | 0.0 | 0.00 | 0.00 | 0.00 | 93 | 1016.9 |
| 20260906095026 | 71 | 0 | 0.0 | 0.0 | 0.00 | 0.00 | 0.00 | 93 | 1016.8 |
| 20260906094548 | 71 | 0 | 0.0 | 0.0 | 0.00 | 0.00 | 0.00 | 93 | 1016.9 |
| 20260906094025 | 71 | 0 | 0.0 | 0.0 | 0.00 | 0.00 | 0.00 | 93 | 1017.0 |
| 20260906093526 | 71 | 0 | 0.0 | 0.0 | 0.00 | 0.00 | 0.00 | 93 | 1017.0 |
| 20260906093045 | 71 | 0 | 0.0 | 0.0 | 0.00 | 0.00 | 0.00 | 92 | 1016.9 |
| 20260906092526 | 71 | 0 | 0.0 | 0.0 | 0.00 | 0.00 | 0.00 | 92 | 1017.0 |
| 20260906092026 | 71 | 0 | 0.0 | 0.0 | 0.00 | 0.00 | 0.00 | 92 | 1016.9 |
| 20260906091550 | 71 | 0 | 0.0 | 0.0 | 0.00 | 0.00 | 0.00 | 92 | 1016.9 |
| 20260906091027 | 71 | 0 | 0.0 | 1.0 | 0.00 | 0.00 | 0.00 | 92 | 1016.9 |
| 20260906090526 | 71 | 0 | 0.0 | 1.0 | 0.00 | 0.00 | 0.00 | 92 | 1016.9 |
| 20260906090054 | 71 | 0 | 0.0 | 0.0 | 0.00 | 0.00 | 0.00 | 92 | 1016.9 |
| 20260906085529 | 71 | 0 | 0.0 | 0.0 | 0.00 | 0.00 | 0.00 | 92 | 1016.9 |
| 20260906085026 | 71 | 0 | 0.0 | 0.0 | 0.00 | 0.00 | 0.00 | 92 | 1016.9 |
| 20260906084548 | 71 | 0 | 0.0 | 0.0 | 0.00 | 0.00 | 0.00 | 92 | 1016.9 |
| 20260906084025 | 71 | 0 | 0.0 | 0.0 | 0.00 | 0.00 | 0.00 | 92 | 1017.0 |
| 20260906083529 | 71 | 0 | 0.0 | 0.0 | 0.00 | 0.00 | 0.00 | 92 | 1017.0 |
| 20260906083042 | 71 | 0 | 0.0 | 0.0 | 0.00 | 0.00 | 0.00 | 92 | 1017.0 |
| 20260906082529 | 70 | 0 | 0.0 | 0.0 | 0.00 | 0.00 | 0.00 | 92 | 1017.0 |
| 20260906082027 | 70 | 0 | 0.0 | 0.0 | 0.00 | 0.00 | 0.00 | 92 | 1016.9 |
| 20260906081553 | 70 | 0 | 0.0 | 3.0 | 0.00 | 0.00 | 0.00 | 91 | 1017.0 |
| 20260906081028 | 70 | 0 | 0.0 | 3.0 | 0.00 | 0.00 | 0.00 | 92 | 1017.0 |
| 20260906080528 | 70 | 0 | 0.0 | 0.0 | 0.00 | 0.00 | 0.00 | 91 | 1017.0 |
| 20260906080046 | 70 | 0 | 0.0 | 0.0 | 0.00 | 0.00 | 0.00 | 91 | 1017.0 |
| 20260906075526 | 70 | 0 | 0.0 | 0.0 | 0.00 | 0.00 | 0.00 | 91 | 1016.9 |
| 20260906075026 | 70 | 0 | 0.0 | 0.0 | 0.00 | 0.00 | 0.00 | 91 | 1017.1 |
| 20260906074604 | 70 | 0 | 0.0 | 0.0 | 0.00 | 0.00 | 0.00 | 91 | 1017.1 |
| 20260906074025 | 70 | 0 | 0.0 | 0.0 | 0.00 | 0.00 | 0.00 | 91 | 1017.0 |
| 20260906073526 | 70 | 0 | 0.0 | 0.0 | 0.00 | 0.00 | 0.00 | 91 | 1017.1 |
| 20260906073042 | 70 | 0 | 0.0 | 0.0 | 0.00 | 0.00 | 0.00 | 91 | 1017.1 |
| 20260906072526 | 70 | 0 | 0.0 | 0.0 | 0.00 | 0.00 | 0.00 | 91 | 1017.1 |
| 20260906072026 | 70 | 0 | 0.0 | 0.0 | 0.00 | 0.00 | 0.00 | 91 | 1017.0 |
| 20260906071547 | 70 | 0 | 0.0 | 0.0 | 0.00 | 0.00 | 0.00 | 91 | 1017.0 |
| 20260906071023 | 70 | 0 | 0.0 | 0.0 | 0.00 | 0.00 | 0.00 | 91 | 1017.0 |
| 20260906070526 | 70 | 0 | 0.0 | 0.0 | 0.00 | 0.00 | 0.00 | 92 | 1017.2 |
| 20260906070046 | 70 | 0 | 0.0 | 0.0 | 0.00 | 0.00 | 0.00 | 92 | 1017.2 |
| 20260906065529 | 70 | 0 | 0.0 | 0.0 | 0.00 | 0.00 | 0.00 | 92 | 1017.2 |
| 20260906065026 | 70 | 0 | 0.0 | 0.0 | 0.00 | 0.00 | 0.00 | 92 | 1017.3 |
| 20260906064548 | 70 | 0 | 0.0 | 0.0 | 0.00 | 0.00 | 0.00 | 92 | 1017.3 |
| 20260906064026 | 69 | 0 | 0.0 | 0.0 | 0.00 | 0.00 | 0.00 | 92 | 1017.3 |
| 20260906063525 | 69 | 0 | 0.0 | 0.0 | 0.00 | 0.00 | 0.00 | 92 | 1017.3 |
| 20260906063049 | 69 | 0 | 0.0 | 0.0 | 0.00 | 0.00 | 0.00 | 92 | 1017.3 |
| 20260906062525 | 69 | 0 | 0.0 | 0.0 | 0.00 | 0.00 | 0.00 | 92 | 1017.3 |
| 20260906062030 | 69 | 0 | 0.0 | 0.0 | 0.00 | 0.00 | 0.00 | 92 | 1017.5 |
| 20260906061550 | 69 | 0 | 0.0 | 0.0 | 0.00 | 0.00 | 0.00 | 91 | 1017.4 |
| 20260906061026 | 69 | 0 | 0.0 | 0.0 | 0.00 | 0.00 | 0.00 | 91 | 1017.4 |
| 20260906060526 | 69 | 0 | 0.0 | 0.0 | 0.00 | 0.00 | 0.00 | 91 | 1017.4 |
| 20260906060046 | 69 | 0 | 0.0 | 0.0 | 0.00 | 0.00 | 0.00 | 91 | 1017.5 |
| 20260906055525 | 69 | 0 | 0.0 | 0.0 | 0.00 | 0.00 | 0.00 | 91 | 1017.5 |
| 20260906055025 | 69 | 0 | 0.0 | 0.0 | 0.00 | 0.00 | 0.00 | 91 | 1017.4 |
| 20260906054548 | 69 | 0 | 0.0 | 0.0 | 0.00 | 0.00 | 0.00 | 90 | 1017.3 |
| 20260906054023 | 69 | 0 | 0.0 | 0.0 | 0.00 | 0.00 | 0.00 | 90 | 1017.2 |
| 20260906053527 | 70 | 0 | 0.0 | 0.0 | 0.00 | 0.00 | 0.00 | 90 | 1017.1 |
| 20260906053046 | 70 | 0 | 0.0 | 0.0 | 0.00 | 0.00 | 0.00 | 90 | 1017.1 |
| 20260906052526 | 70 | 0 | 0.0 | 0.0 | 0.00 | 0.00 | 0.00 | 90 | 1017.1 |
| 20260906052026 | 70 | 0 | 0.0 | 0.0 | 0.00 | 0.00 | 0.00 | 90 | 1017.0 |
| 20260906051559 | 70 | 0 | 0.0 | 0.0 | 0.00 | 0.00 | 0.00 | 90 | 1017.0 |
| 20260906051026 | 70 | 0 | 0.0 | 0.0 | 0.00 | 0.00 | 0.00 | 91 | 1017.0 |
| 20260906050525 | 70 | 0 | 0.0 | 2.0 | 0.00 | 0.00 | 0.00 | 91 | 1017.0 |
| 20260906050052 | 70 | 0 | 0.0 | 2.0 | 0.00 | 0.00 | 0.00 | 91 | 1016.9 |
| 20260906045525 | 70 | 0 | 0.0 | 0.0 | 0.00 | 0.00 | 0.00 | 91 | 1016.8 |
| 20260906045028 | 70 | 0 | 0.0 | 0.0 | 0.00 | 0.00 | 0.00 | 91 | 1016.8 |
| 20260906044551 | 70 | 0 | 0.0 | 0.0 | 0.00 | 0.00 | 0.00 | 90 | 1016.7 |
| 20260906044028 | 70 | 0 | 0.0 | 0.0 | 0.00 | 0.00 | 0.00 | 90 | 1016.7 |
| 20260906043530 | 70 | 0 | 0.0 | 0.0 | 0.00 | 0.00 | 0.00 | 91 | 1016.6 |
| 20260906043046 | 70 | 0 | 0.0 | 0.0 | 0.00 | 0.00 | 0.00 | 90 | 1016.4 |
| 20260906042526 | 70 | 0 | 0.0 | 0.0 | 0.00 | 0.00 | 0.00 | 90 | 1016.4 |
| 20260906042026 | 70 | 0 | 0.0 | 0.0 | 0.00 | 0.00 | 0.00 | 90 | 1016.4 |
| 20260906041546 | 71 | 0 | 0.0 | 0.0 | 0.00 | 0.00 | 0.00 | 90 | 1016.4 |
| 20260906041025 | 71 | 0 | 0.0 | 0.0 | 0.00 | 0.00 | 0.00 | 90 | 1016.3 |
| 20260906040525 | 71 | 0 | 0.0 | 0.0 | 0.00 | 0.00 | 0.00 | 90 | 1016.3 |
| 20260906040050 | 71 | 0 | 0.0 | 0.0 | 0.00 | 0.00 | 0.00 | 90 | 1016.4 |
| 20260906035525 | 71 | 0 | 0.0 | 0.0 | 0.00 | 0.00 | 0.00 | 90 | 1016.4 |
| 20260906035027 | 71 | 0 | 0.0 | 0.0 | 0.00 | 0.00 | 0.00 | 89 | 1016.3 |
| 20260906034546 | 71 | 0 | 0.0 | 0.0 | 0.00 | 0.00 | 0.00 | 89 | 1016.2 |
| 20260906034026 | 71 | 0 | 0.0 | 0.0 | 0.00 | 0.00 | 0.00 | 89 | 1016.2 |
| 20260906033526 | 71 | 0 | 0.0 | 0.0 | 0.00 | 0.00 | 0.00 | 89 | 1016.2 |
| 20260906033048 | 72 | 0 | 0.0 | 0.0 | 0.00 | 0.00 | 0.00 | 88 | 1016.2 |
| 20260906032525 | 72 | 0 | 0.0 | 0.0 | 0.00 | 0.00 | 0.00 | 88 | 1016.2 |
| 20260906032025 | 72 | 0 | 0.0 | 0.0 | 0.00 | 0.00 | 0.00 | 87 | 1016.2 |
| 20260906031555 | 72 | 0 | 0.0 | 0.0 | 0.00 | 0.00 | 0.00 | 87 | 1016.2 |
| 20260906031025 | 72 | 0 | 0.0 | 0.0 | 0.00 | 0.00 | 0.00 | 87 | 1016.2 |
| 20260906030528 | 73 | 0 | 0.0 | 0.0 | 0.00 | 0.00 | 0.00 | 87 | 1016.2 |
| 20260906030048 | 73 | 0 | 0.0 | 0.0 | 0.00 | 0.00 | 0.00 | 87 | 1016.1 |
| 20260906025524 | 73 | 0 | 0.0 | 0.0 | 0.00 | 0.00 | 0.00 | 86 | 1016.1 |
| 20260906025027 | 73 | 0 | 0.0 | 0.0 | 0.00 | 0.00 | 0.00 | 86 | 1016.2 |
| 20260906024546 | 74 | 0 | 0.0 | 0.0 | 0.00 | 0.00 | 0.00 | 86 | 1016.1 |
| 20260906024026 | 74 | 0 | 0.0 | 0.0 | 0.00 | 0.00 | 0.00 | 85 | 1016.0 |
| 20260906023526 | 74 | 0 | 0.0 | 0.0 | 0.00 | 0.00 | 0.00 | 85 | 1016.0 |
| 20260906023050 | 74 | 0 | 0.0 | 0.0 | 0.00 | 0.00 | 0.00 | 85 | 1015.8 |
| 20260906022528 | 74 | 0 | 0.0 | 0.0 | 0.00 | 0.00 | 0.00 | 85 | 1015.9 |
| 20260906022025 | 75 | 0 | 0.0 | 0.0 | 0.00 | 0.00 | 0.00 | 85 | 1015.8 |
| 20260906021545 | 75 | 0 | 0.0 | 3.0 | 0.00 | 0.00 | 0.00 | 85 | 1015.7 |
| 20260906021025 | 75 | 0 | 0.0 | 3.0 | 0.00 | 0.00 | 0.00 | 85 | 1015.7 |
| 20260906020526 | 75 | 0 | 0.0 | 0.0 | 0.00 | 0.00 | 0.00 | 85 | 1015.6 |
| 20260906020057 | 76 | 0 | 0.0 | 4.0 | 0.00 | 0.00 | 0.00 | 84 | 1015.5 |
| 20260906015524 | 76 | 0 | 0.0 | 6.0 | 0.00 | 0.00 | 0.00 | 84 | 1015.4 |
| 20260906015023 | 76 | 0 | 0.0 | 6.0 | 0.00 | 0.00 | 0.00 | 84 | 1015.4 |
| 20260906014546 | 76 | 0 | 0.0 | 4.0 | 0.00 | 0.00 | 0.00 | 84 | 1015.3 |
| 20260906014025 | 76 | 0 | 0.0 | 1.0 | 0.00 | 0.00 | 0.00 | 83 | 1015.3 |
| 20260906013525 | 77 | 0 | 0.0 | 1.0 | 0.00 | 0.00 | 0.00 | 83 | 1015.3 |
| 20260906013048 | 77 | 0 | 0.0 | 6.0 | 0.00 | 0.00 | 0.00 | 82 | 1015.2 |
| 20260906012526 | 77 | 0 | 0.0 | 6.0 | 0.00 | 0.00 | 0.00 | 82 | 1015.0 |
| 20260906012024 | 77 | 0 | 0.0 | 6.0 | 0.00 | 0.00 | 0.00 | 82 | 1015.1 |
| 20260906011550 | 78 | 0 | 0.0 | 8.0 | 0.00 | 0.00 | 0.00 | 81 | 1015.1 |
| 20260906011024 | 78 | 0 | 0.0 | 8.0 | 0.00 | 0.00 | 0.00 | 81 | 1015.1 |
| 20260906010528 | 78 | 0 | 0.0 | 6.0 | 0.00 | 0.00 | 0.00 | 81 | 1014.9 |
| 20260906010047 | 79 | 0 | 0.0 | 1.0 | 0.00 | 0.00 | 0.00 | 80 | 1014.9 |
| 20260906005524 | 79 | 0 | 0.0 | 3.0 | 0.00 | 0.00 | 0.00 | 80 | 1014.9 |
| 20260906005027 | 79 | 0 | 0.0 | 6.0 | 0.00 | 0.00 | 0.00 | 80 | 1014.7 |
| 20260906004553 | 80 | 0 | 0.0 | 6.0 | 0.00 | 0.00 | 0.00 | 79 | 1014.8 |
| 20260906004027 | 80 | 286 | 0.0 | 6.0 | 0.00 | 0.00 | 0.00 | 79 | 1014.8 |
| 20260906003524 | 80 | 0 | 0.0 | 6.0 | 0.00 | 0.00 | 0.00 | 79 | 1014.7 |
| 20260906003049 | 81 | 0 | 0.0 | 6.0 | 0.00 | 0.00 | 0.00 | 78 | 1014.7 |
| 20260906002524 | 81 | 0 | 0.0 | 6.0 | 0.00 | 0.00 | 0.00 | 77 | 1014.6 |
| 20260906002025 | 81 | 0 | 0.0 | 7.0 | 0.00 | 0.00 | 0.00 | 77 | 1014.7 |
| 20260906001548 | 82 | 0 | 0.0 | 7.0 | 0.00 | 0.00 | 0.00 | 76 | 1014.7 |
| 20260906001025 | 82 | 0 | 0.0 | 10.0 | 0.00 | 0.00 | 0.00 | 76 | 1014.7 |
| 20260906000526 | 83 | 0 | 0.0 | 10.0 | 0.00 | 0.00 | 0.00 | 75 | 1014.6 |
| 20260906000046 | 83 | 0 | 0.0 | 7.0 | 0.00 | 0.00 | 0.00 | 75 | 1014.4 |
| 20260905235526 | 84 | 0 | 0.0 | 7.0 | 0.00 | 0.00 | 0.00 | 75 | 1014.4 |
| 20260905235028 | 84 | 0 | 0.0 | 3.0 | 0.00 | 0.00 | 0.00 | 74 | 1014.3 |
| 20260905234553 | 84 | 0 | 0.0 | 4.0 | 0.00 | 0.00 | 0.00 | 73 | 1014.3 |
| 20260905234024 | 85 | 0 | 0.0 | 4.0 | 0.00 | 0.00 | 0.00 | 73 | 1014.3 |
| 20260905233524 | 85 | 0 | 0.0 | 4.0 | 0.00 | 0.00 | 0.00 | 72 | 1014.2 |
| 20260905233049 | 85 | 0 | 0.0 | 4.0 | 0.00 | 0.00 | 0.00 | 72 | 1014.2 |
| 20260905232525 | 86 | 0 | 0.0 | 10.0 | 0.00 | 0.00 | 0.00 | 72 | 1014.2 |
| 20260905232024 | 86 | 0 | 0.0 | 10.0 | 0.00 | 0.00 | 0.00 | 72 | 1014.3 |
| 20260905231546 | 86 | 0 | 0.0 | 9.0 | 0.00 | 0.00 | 0.00 | 70 | 1014.3 |
| 20260905231025 | 87 | 0 | 0.0 | 9.0 | 0.00 | 0.00 | 0.00 | 69 | 1014.2 |
| 20260905230525 | 87 | 286 | 0.0 | 4.0 | 0.00 | 0.00 | 0.00 | 70 | 1014.1 |
| 20260905230054 | 88 | 0 | 0.0 | 8.0 | 0.00 | 0.00 | 0.00 | 69 | 1014.1 |
| 20260905225523 | 88 | 0 | 0.0 | 8.0 | 0.00 | 0.00 | 0.00 | 69 | 1014.1 |
| 20260905225023 | 88 | 0 | 0.0 | 8.0 | 0.00 | 0.00 | 0.00 | 68 | 1014.0 |
| 20260905224601 | 89 | 0 | 0.0 | 7.0 | 0.00 | 0.00 | 0.00 | 68 | 1014.0 |
| 20260905224026 | 89 | 0 | 0.0 | 0.0 | 0.00 | 0.00 | 0.00 | 68 | 1014.0 |
| 20260905223525 | 89 | 0 | 0.0 | 0.0 | 0.00 | 0.00 | 0.00 | 67 | 1014.0 |
| 20260905223053 | 89 | 0 | 0.0 | 3.0 | 0.00 | 0.00 | 0.00 | 68 | 1014.0 |
| 20260905222524 | 90 | 0 | 0.0 | 3.0 | 0.00 | 0.00 | 0.00 | 66 | 1014.1 |
| 20260905222023 | 90 | 0 | 0.0 | 0.0 | 0.00 | 0.00 | 0.00 | 67 | 1014.1 |
| 20260905221556 | 90 | 0 | 0.0 | 6.0 | 0.00 | 0.00 | 0.00 | 66 | 1014.1 |
| 20260905221033 | 90 | 0 | 0.0 | 6.0 | 0.00 | 0.00 | 0.00 | 66 | 1014.0 |
| 20260905220525 | 90 | 0 | 0.0 | 4.0 | 0.00 | 0.00 | 0.00 | 66 | 1013.9 |
| 20260905220100 | 90 | 0 | 0.0 | 4.0 | 0.00 | 0.00 | 0.00 | 64 | 1014.0 |
| 20260905215525 | 91 | 0 | 0.0 | 4.0 | 0.00 | 0.00 | 0.00 | 63 | 1014.0 |
| 20260905215023 | 91 | 0 | 0.0 | 4.0 | 0.00 | 0.00 | 0.00 | 64 | 1014.0 |
| 20260905214549 | 91 | 0 | 0.0 | 6.0 | 0.00 | 0.00 | 0.00 | 64 | 1014.0 |
| 20260905214025 | 91 | 0 | 0.0 | 6.0 | 0.00 | 0.00 | 0.00 | 63 | 1013.9 |
| 20260905213526 | 91 | 0 | 0.0 | 6.0 | 0.00 | 0.00 | 0.00 | 63 | 1013.9 |
| 20260905213050 | 91 | 0 | 0.0 | 6.0 | 0.00 | 0.00 | 0.00 | 62 | 1013.9 |
| 20260905212527 | 92 | 0 | 0.0 | 7.0 | 0.00 | 0.00 | 0.00 | 62 | 1013.9 |
| 20260905212025 | 92 | 0 | 0.0 | 7.0 | 0.00 | 0.00 | 0.00 | 62 | 1013.9 |
| 20260905211603 | 92 | 0 | 0.0 | 3.0 | 0.00 | 0.00 | 0.00 | 62 | 1013.9 |
| 20260905211026 | 92 | 0 | 0.0 | 3.0 | 0.00 | 0.00 | 0.00 | 64 | 1013.8 |
| 20260905210526 | 91 | 0 | 0.0 | 3.0 | 0.00 | 0.00 | 0.00 | 64 | 1013.8 |
| 20260905210056 | 92 | 0 | 0.0 | 1.0 | 0.00 | 0.00 | 0.00 | 64 | 1013.9 |
| 20260905205523 | 92 | 0 | 0.0 | 4.0 | 0.00 | 0.00 | 0.00 | 63 | 1014.0 |
| 20260905205024 | 92 | 0 | 0.0 | 4.0 | 0.00 | 0.00 | 0.00 | 62 | 1014.0 |